Time,TemperatureF,DewpointF,PressureIn,WindDirection,WindDirectionDegrees,WindSpeedMPH,WindSpeedGustMPH,Humidity,HourlyPrecipIn,Conditions,Clouds,dailyrainin,SoftwareType,DateUTC
2013-02-15 09:25:00,24.2,21.2,29.93,East,81,2.0,2.0,88,0.00,,,0.00,Wunderground v.1.15,2013-02-15 14:25:00,
2013-02-15 09:30:00,24.6,21.8,29.93,East,81,1.0,5.0,89,0.00,,,0.00,Wunderground v.1.15,2013-02-15 14:30:00,
2013-02-15 09:35:00,25.0,21.9,29.93,East,81,0.0,5.0,88,0.00,,,0.00,Wunderground v.1.15,2013-02-15 14:35:00,
2013-02-15 09:40:00,25.2,22.1,29.93,East,81,1.0,5.0,88,0.00,,,0.00,Wunderground v.1.15,2013-02-15 14:40:00,
2013-02-15 09:45:00,25.3,22.0,29.93,East,81,1.0,1.0,87,0.00,,,0.00,Wunderground v.1.15,2013-02-15 14:45:00,
2013-02-15 09:55:00,25.8,22.5,29.93,East,81,0.0,5.0,87,0.00,,,0.00,Wunderground v.1.15,2013-02-15 14:55:00,
2013-02-15 10:00:00,26.2,22.9,29.92,East,81,0.0,5.0,87,0.00,,,0.00,Wunderground v.1.15,2013-02-15 15:00:00,
2013-02-15 10:05:00,26.6,23.0,29.92,East,81,0.0,5.0,86,0.00,,,0.00,Wunderground v.1.15,2013-02-15 15:05:00,
2013-02-15 10:10:00,26.9,23.3,29.92,East,79,1.0,1.0,86,0.00,,,0.00,Wunderground v.1.15,2013-02-15 15:10:00,
2013-02-15 10:15:00,27.2,23.6,29.92,East,79,1.0,5.0,86,0.00,,,0.00,Wunderground v.1.15,2013-02-15 15:15:00,
2013-02-15 10:20:00,27.7,23.5,29.92,East,79,0.0,5.0,84,0.00,,,0.00,Wunderground v.1.15,2013-02-15 15:20:00,
2013-02-15 10:25:00,28.1,23.6,29.92,East,79,1.0,5.0,83,0.00,,,0.00,Wunderground v.1.15,2013-02-15 15:25:00,
2013-02-15 10:30:00,28.2,24.3,29.92,East,79,1.0,5.0,85,0.00,,,0.00,Wunderground v.1.15,2013-02-15 15:30:00,
2013-02-15 10:35:00,28.3,24.4,29.92,East,79,1.0,5.0,85,0.00,,,0.00,Wunderground v.1.15,2013-02-15 15:35:00,
2013-02-15 10:40:00,28.7,24.8,29.92,East,79,0.0,5.0,85,0.00,,,0.00,Wunderground v.1.15,2013-02-15 15:40:00,
2013-02-15 10:45:00,29.0,24.5,29.92,East,79,0.0,5.0,83,0.00,,,0.00,Wunderground v.1.15,2013-02-15 15:45:00,
2013-02-15 10:55:00,29.7,24.6,29.91,NNW,347,1.0,5.0,81,0.00,,,0.00,Wunderground v.1.15,2013-02-15 15:55:00,
2013-02-15 11:05:00,30.5,25.7,29.91,NW,316,3.0,5.0,82,0.00,,,0.00,Wunderground v.1.15,2013-02-15 16:05:00,
2013-02-15 11:10:00,30.8,25.4,29.91,NW,324,4.0,5.0,80,0.00,,,0.00,Wunderground v.1.15,2013-02-15 16:10:00,
2013-02-15 11:15:00,31.1,25.7,29.91,NW,325,4.0,5.0,80,0.00,,,0.00,Wunderground v.1.15,2013-02-15 16:15:00,
2013-02-15 11:20:00,31.3,25.8,29.90,NW,321,4.0,5.0,80,0.00,,,0.00,Wunderground v.1.15,2013-02-15 16:20:00,
2013-02-15 11:30:00,31.7,26.2,29.90,NW,316,4.0,5.0,80,0.00,,,0.00,Wunderground v.1.15,2013-02-15 16:30:00,
2013-02-15 11:35:00,31.8,26.0,29.90,NW,315,4.0,5.0,79,0.00,,,0.00,Wunderground v.1.15,2013-02-15 16:35:00,
2013-02-15 11:40:00,32.2,26.1,29.89,NW,317,4.0,5.0,78,0.00,,,0.00,Wunderground v.1.15,2013-02-15 16:40:00,
2013-02-15 11:45:00,32.4,26.3,29.89,NW,317,4.0,4.0,78,0.00,,,0.00,Wunderground v.1.15,2013-02-15 16:45:00,
2013-02-15 11:55:00,32.8,26.7,29.89,NW,318,4.0,4.0,78,0.00,,,0.00,Wunderground v.1.15,2013-02-15 16:55:00,
2013-02-15 12:05:00,33.7,26.9,29.88,NW,306,3.0,5.0,76,0.00,,,0.00,Wunderground v.1.15,2013-02-15 17:05:00,
2013-02-15 12:10:00,34.3,26.9,29.88,WNW,301,3.0,5.0,74,0.00,,,0.00,Wunderground v.1.15,2013-02-15 17:10:00,
2013-02-15 12:15:00,34.8,27.0,29.88,NW,325,3.0,5.0,73,0.00,,,0.00,Wunderground v.1.15,2013-02-15 17:15:00,
2013-02-15 12:20:00,35.1,27.6,29.88,NW,312,4.0,5.0,74,0.00,,,0.00,Wunderground v.1.15,2013-02-15 17:20:00,
2013-02-15 12:25:00,35.4,27.6,29.88,NW,323,4.0,5.0,73,0.00,,,0.00,Wunderground v.1.15,2013-02-15 17:25:00,
2013-02-15 12:35:00,36.1,27.9,29.88,NW,318,3.0,6.0,72,0.00,,,0.00,Wunderground v.1.15,2013-02-15 17:35:00,
2013-02-15 12:40:00,36.6,28.1,29.88,NW,323,3.0,5.0,71,0.00,,,0.00,Wunderground v.1.15,2013-02-15 17:40:00,
2013-02-15 12:45:00,36.9,28.4,29.87,NW,324,3.0,5.0,71,0.00,,,0.00,Wunderground v.1.15,2013-02-15 17:45:00,
2013-02-15 12:50:00,37.2,28.3,29.87,NW,324,2.0,5.0,70,0.00,,,0.00,Wunderground v.1.15,2013-02-15 17:50:00,
2013-02-15 13:05:00,38.0,28.7,29.87,NW,324,1.0,1.0,69,0.00,,,0.00,Wunderground v.1.15,2013-02-15 18:05:00,
2013-02-15 13:10:00,38.6,28.6,29.86,NW,324,0.0,5.0,67,0.00,,,0.00,Wunderground v.1.15,2013-02-15 18:10:00,
2013-02-15 13:15:00,38.9,28.9,29.86,NW,324,0.0,5.0,67,0.00,,,0.00,Wunderground v.1.15,2013-02-15 18:15:00,
2013-02-15 13:20:00,38.9,29.2,29.86,NW,324,0.0,5.0,68,0.00,,,0.00,Wunderground v.1.15,2013-02-15 18:20:00,
2013-02-15 13:25:00,39.2,29.5,29.86,NW,324,1.0,5.0,68,0.00,,,0.00,Wunderground v.1.15,2013-02-15 18:25:00,
2013-02-15 13:30:00,39.9,29.8,29.86,ENE,66,1.0,5.0,67,0.00,,,0.00,Wunderground v.1.15,2013-02-15 18:30:00,
2013-02-15 13:35:00,40.4,29.6,29.86,ENE,66,1.0,1.0,65,0.00,,,0.00,Wunderground v.1.15,2013-02-15 18:35:00,
2013-02-15 13:45:00,40.6,30.1,29.85,NW,316,1.0,5.0,66,0.00,,,0.00,Wunderground v.1.15,2013-02-15 18:45:00,
2013-02-15 13:50:00,40.6,30.5,29.86,NNW,331,1.0,5.0,67,0.00,,,0.00,Wunderground v.1.15,2013-02-15 18:50:00,
2013-02-15 13:55:00,40.9,30.0,29.85,NNW,331,2.0,2.0,65,0.00,,,0.00,Wunderground v.1.15,2013-02-15 18:55:00,
2013-02-15 14:00:00,41.3,30.4,29.86,NNW,331,1.0,1.0,65,0.00,,,0.00,Wunderground v.1.15,2013-02-15 19:00:00,
2013-02-15 14:05:00,41.9,31.0,29.85,NNW,331,0.0,5.0,65,0.00,,,0.00,Wunderground v.1.15,2013-02-15 19:05:00,
2013-02-15 14:10:00,42.3,30.6,29.85,NNW,331,0.0,5.0,63,0.00,,,0.00,Wunderground v.1.15,2013-02-15 19:10:00,
2013-02-15 14:15:00,42.3,30.6,29.85,East,101,1.0,6.0,63,0.00,,,0.00,Wunderground v.1.15,2013-02-15 19:15:00,
2013-02-15 14:20:00,41.5,31.0,29.85,ESE,111,2.0,2.0,66,0.00,,,0.00,Wunderground v.1.15,2013-02-15 19:20:00,
2013-02-15 14:25:00,41.3,30.8,29.85,ESE,111,1.0,5.0,66,0.00,,,0.00,Wunderground v.1.15,2013-02-15 19:25:00,
2013-02-15 14:35:00,42.1,30.4,29.85,South,184,1.0,5.0,63,0.00,,,0.00,Wunderground v.1.15,2013-02-15 19:35:00,
2013-02-15 14:40:00,43.2,29.0,29.85,NW,308,2.0,5.0,57,0.00,,,0.00,Wunderground v.1.15,2013-02-15 19:40:00,
2013-02-15 14:45:00,45.2,28.6,29.85,West,269,3.0,5.0,52,0.00,,,0.00,Wunderground v.1.15,2013-02-15 19:45:00,
2013-02-15 14:50:00,46.3,29.1,29.85,SW,221,4.0,4.0,51,0.00,,,0.00,Wunderground v.1.15,2013-02-15 19:50:00,
2013-02-15 14:55:00,46.9,28.7,29.85,NW,324,3.0,5.0,49,0.00,,,0.00,Wunderground v.1.15,2013-02-15 19:55:00,
2013-02-15 15:00:00,47.0,28.8,29.85,SW,232,2.0,5.0,49,0.00,,,0.00,Wunderground v.1.15,2013-02-15 20:00:00,
2013-02-15 15:05:00,47.2,28.5,29.85,North,355,3.0,5.0,48,0.00,,,0.00,Wunderground v.1.15,2013-02-15 20:05:00,
2013-02-15 15:10:00,47.3,28.6,29.85,NNW,329,3.0,3.0,48,0.00,,,0.00,Wunderground v.1.15,2013-02-15 20:10:00,
2013-02-15 15:15:00,47.4,28.7,29.85,SSE,160,2.0,5.0,48,0.00,,,0.00,Wunderground v.1.15,2013-02-15 20:15:00,
2013-02-15 15:20:00,47.4,29.7,29.85,ESE,106,2.0,2.0,50,0.00,,,0.00,Wunderground v.1.15,2013-02-15 20:20:00,
2013-02-15 15:25:00,47.0,28.8,29.85,NNW,337,2.0,3.0,49,0.00,,,0.00,Wunderground v.1.15,2013-02-15 20:25:00,
2013-02-15 15:30:00,46.9,28.7,29.85,North,355,2.0,5.0,49,0.00,,,0.00,Wunderground v.1.15,2013-02-15 20:30:00,
2013-02-15 15:35:00,47.0,29.3,29.85,North,360,2.0,5.0,50,0.00,,,0.00,Wunderground v.1.15,2013-02-15 20:35:00,
2013-02-15 15:45:00,47.0,29.3,29.85,NNW,346,0.0,3.0,50,0.00,,,0.00,Wunderground v.1.15,2013-02-15 20:45:00,
2013-02-15 15:50:00,46.9,28.7,29.85,NNW,346,1.0,1.0,49,0.00,,,0.00,Wunderground v.1.15,2013-02-15 20:50:00,
2013-02-15 16:00:00,46.5,28.8,29.85,NNW,346,0.0,5.0,50,0.00,,,0.00,Wunderground v.1.15,2013-02-15 21:00:00,
2013-02-15 16:05:00,46.4,28.8,29.85,WSW,244,0.0,5.0,50,0.00,,,0.00,Wunderground v.1.15,2013-02-15 21:05:00,
2013-02-15 16:10:00,46.4,29.2,29.85,WSW,244,0.0,5.0,51,0.00,,,0.00,Wunderground v.1.15,2013-02-15 21:10:00,
2013-02-15 16:15:00,46.3,29.1,29.85,WSW,244,0.0,5.0,51,0.00,,,0.00,Wunderground v.1.15,2013-02-15 21:15:00,
2013-02-15 16:20:00,46.4,29.2,29.85,NNW,348,0.0,5.0,51,0.00,,,0.00,Wunderground v.1.15,2013-02-15 21:20:00,
2013-02-15 16:30:00,46.3,30.1,29.85,NNW,348,0.0,5.0,53,0.00,,,0.00,Wunderground v.1.15,2013-02-15 21:30:00,
2013-02-15 16:35:00,45.9,29.2,29.85,NNW,348,0.0,5.0,52,0.00,,,0.00,Wunderground v.1.15,2013-02-15 21:35:00,
2013-02-15 16:45:00,45.0,28.9,29.86,NNW,348,0.0,5.0,53,0.00,,,0.00,Wunderground v.1.15,2013-02-15 21:45:00,
2013-02-15 16:50:00,44.6,28.5,29.86,NNW,348,0.0,5.0,53,0.00,,,0.00,Wunderground v.1.15,2013-02-15 21:50:00,
2013-02-15 16:55:00,44.4,28.8,29.86,NNW,348,0.0,5.0,54,0.00,,,0.00,Wunderground v.1.15,2013-02-15 21:55:00,
2013-02-15 17:05:00,44.3,28.2,29.86,NNW,348,1.0,5.0,53,0.00,,,0.00,Wunderground v.1.15,2013-02-15 22:05:00,
2013-02-15 17:10:00,44.0,28.0,29.86,NNW,333,1.0,1.0,53,0.00,,,0.00,Wunderground v.1.15,2013-02-15 22:10:00,
2013-02-15 17:15:00,43.9,28.3,29.87,NNW,333,1.0,5.0,54,0.00,,,0.00,Wunderground v.1.15,2013-02-15 22:15:00,
2013-02-15 17:20:00,43.7,28.1,29.86,NNW,333,1.0,5.0,54,0.00,,,0.00,Wunderground v.1.15,2013-02-15 22:20:00,
2013-02-15 17:25:00,43.4,28.3,29.86,SW,236,1.0,5.0,55,0.00,,,0.00,Wunderground v.1.15,2013-02-15 22:25:00,
2013-02-15 17:30:00,43.1,27.6,29.86,SW,236,1.0,5.0,54,0.00,,,0.00,Wunderground v.1.15,2013-02-15 22:30:00,
2013-02-15 17:40:00,42.9,29.1,29.87,SW,236,1.0,1.0,58,0.00,,,0.00,Wunderground v.1.15,2013-02-15 22:40:00,
2013-02-15 17:50:00,41.3,28.4,29.87,NW,316,0.0,5.0,60,0.00,,,0.00,Wunderground v.1.15,2013-02-15 22:50:00,
2013-02-15 17:55:00,40.7,27.9,29.87,NW,316,0.0,5.0,60,0.00,,,0.00,Wunderground v.1.15,2013-02-15 22:55:00,
2013-02-15 18:00:00,40.0,28.0,29.88,NW,316,0.0,5.0,62,0.00,,,0.00,Wunderground v.1.15,2013-02-15 23:00:00,
2013-02-15 18:05:00,40.2,27.4,29.88,NNW,330,1.0,5.0,60,0.00,,,0.00,Wunderground v.1.15,2013-02-15 23:05:00,
2013-02-15 18:15:00,41.7,27.1,29.88,NW,319,1.0,6.0,56,0.00,,,0.00,Wunderground v.1.15,2013-02-15 23:15:00,
2013-02-15 18:20:00,42.1,27.1,29.88,WNW,302,2.0,2.0,55,0.00,,,0.00,Wunderground v.1.15,2013-02-15 23:20:00,
2013-02-15 18:25:00,42.2,27.2,29.88,NNW,347,2.0,5.0,55,0.00,,,0.00,Wunderground v.1.15,2013-02-15 23:25:00,
2013-02-15 18:30:00,42.3,27.3,29.88,NNW,345,1.0,5.0,55,0.00,,,0.00,Wunderground v.1.15,2013-02-15 23:30:00,
2013-02-15 18:35:00,42.2,27.6,29.89,NNW,327,2.0,5.0,56,0.00,,,0.00,Wunderground v.1.15,2013-02-15 23:35:00,
2013-02-15 18:45:00,40.5,27.3,29.89,NW,308,1.0,5.0,59,0.00,,,0.00,Wunderground v.1.15,2013-02-15 23:45:00,
2013-02-15 18:55:00,41.0,26.5,29.89,West,269,2.0,5.0,56,0.00,,,0.00,Wunderground v.1.15,2013-02-15 23:55:00,
2013-02-15 19:05:00,41.4,26.4,29.89,WNW,297,2.0,2.0,55,0.00,,,0.00,Wunderground v.1.15,2013-02-16 00:05:00,
2013-02-15 19:10:00,41.4,26.4,29.89,NW,317,2.0,5.0,55,0.00,,,0.00,Wunderground v.1.15,2013-02-16 00:10:00,
2013-02-15 19:20:00,41.3,26.3,29.89,NNW,338,2.0,5.0,55,0.00,,,0.00,Wunderground v.1.15,2013-02-16 00:20:00,
2013-02-15 19:25:00,41.2,26.2,29.90,NNW,331,1.0,5.0,55,0.00,,,0.00,Wunderground v.1.15,2013-02-16 00:25:00,
2013-02-15 19:30:00,40.9,26.4,29.90,NNW,331,0.0,5.0,56,0.00,,,0.00,Wunderground v.1.15,2013-02-16 00:30:00,
2013-02-15 19:35:00,40.6,27.4,29.90,NNW,331,0.0,5.0,59,0.00,,,0.00,Wunderground v.1.15,2013-02-16 00:35:00,
2013-02-15 19:40:00,39.9,26.7,29.90,NNW,331,0.0,5.0,59,0.00,,,0.00,Wunderground v.1.15,2013-02-16 00:40:00,
2013-02-15 19:45:00,39.3,27.0,29.90,NNW,331,0.0,5.0,61,0.00,,,0.00,Wunderground v.1.15,2013-02-16 00:45:00,
2013-02-15 19:55:00,38.1,27.0,29.89,NNW,331,0.0,5.0,64,0.00,,,0.00,Wunderground v.1.15,2013-02-16 00:55:00,
2013-02-15 20:05:00,37.7,26.6,29.90,NNW,331,0.0,5.0,64,0.00,,,0.00,Wunderground v.1.15,2013-02-16 01:05:00,
2013-02-15 20:10:00,37.5,26.8,29.90,NNW,331,0.0,5.0,65,0.00,,,0.00,Wunderground v.1.15,2013-02-16 01:10:00,
2013-02-15 20:15:00,37.0,26.7,29.90,NNW,331,0.0,5.0,66,0.00,,,0.00,Wunderground v.1.15,2013-02-16 01:15:00,
2013-02-15 20:20:00,36.5,26.6,29.90,NNW,331,0.0,5.0,67,0.00,,,0.00,Wunderground v.1.15,2013-02-16 01:20:00,
2013-02-15 20:30:00,35.6,26.1,29.90,NNW,331,0.0,5.0,68,0.00,,,0.00,Wunderground v.1.15,2013-02-16 01:30:00,
2013-02-15 20:35:00,35.5,26.0,29.90,NNW,331,0.0,5.0,68,0.00,,,0.00,Wunderground v.1.15,2013-02-16 01:35:00,
2013-02-15 20:40:00,35.5,25.6,29.90,NNW,331,0.0,5.0,67,0.00,,,0.00,Wunderground v.1.15,2013-02-16 01:40:00,
2013-02-15 20:45:00,35.6,25.7,29.90,NNW,331,0.0,5.0,67,0.00,,,0.00,Wunderground v.1.15,2013-02-16 01:45:00,
2013-02-15 20:55:00,35.2,25.7,29.91,NNW,331,0.0,5.0,68,0.00,,,0.00,Wunderground v.1.15,2013-02-16 01:55:00,
2013-02-15 21:05:00,35.8,25.9,29.91,NNW,331,0.0,5.0,67,0.00,,,0.00,Wunderground v.1.15,2013-02-16 02:05:00,
2013-02-15 21:10:00,35.9,26.0,29.91,NNW,331,0.0,5.0,67,0.00,,,0.00,Wunderground v.1.15,2013-02-16 02:10:00,
2013-02-15 21:15:00,36.1,25.8,29.91,NNW,331,0.0,5.0,66,0.00,,,0.00,Wunderground v.1.15,2013-02-16 02:15:00,
2013-02-15 21:20:00,36.3,25.7,29.91,NNW,331,0.0,5.0,65,0.00,,,0.00,Wunderground v.1.15,2013-02-16 02:20:00,
2013-02-15 21:25:00,36.4,25.4,29.91,NNW,331,0.0,5.0,64,0.00,,,0.00,Wunderground v.1.15,2013-02-16 02:25:00,
2013-02-15 21:35:00,36.8,25.8,29.90,NW,320,1.0,5.0,64,0.00,,,0.00,Wunderground v.1.15,2013-02-16 02:35:00,
2013-02-15 21:40:00,36.8,25.8,29.91,NW,320,1.0,1.0,64,0.00,,,0.00,Wunderground v.1.15,2013-02-16 02:40:00,
2013-02-15 21:45:00,35.8,26.6,29.91,NNW,327,1.0,5.0,69,0.00,,,0.00,Wunderground v.1.15,2013-02-16 02:45:00,
2013-02-15 21:50:00,35.0,26.5,29.91,NW,319,2.0,2.0,71,0.00,,,0.00,Wunderground v.1.15,2013-02-16 02:50:00,
2013-02-15 22:00:00,34.5,26.1,29.90,NW,321,1.0,5.0,71,0.00,,,0.00,Wunderground v.1.15,2013-02-16 03:00:00,
2013-02-15 22:05:00,34.4,26.0,29.91,NW,321,1.0,5.0,71,0.00,,,0.00,Wunderground v.1.15,2013-02-16 03:05:00,
2013-02-15 22:15:00,34.8,25.7,29.90,NW,321,1.0,5.0,69,0.00,,,0.00,Wunderground v.1.15,2013-02-16 03:15:00,
2013-02-15 22:20:00,34.9,26.4,29.90,NW,321,0.0,5.0,71,0.00,,,0.00,Wunderground v.1.15,2013-02-16 03:20:00,
2013-02-15 22:25:00,34.9,25.8,29.90,NW,321,0.0,5.0,69,0.00,,,0.00,Wunderground v.1.15,2013-02-16 03:25:00,
2013-02-15 22:30:00,34.9,24.7,29.90,NW,321,0.0,5.0,66,0.00,,,0.00,Wunderground v.1.15,2013-02-16 03:30:00,
2013-02-15 22:35:00,35.1,24.1,29.90,NW,321,0.0,5.0,64,0.00,,,0.00,Wunderground v.1.15,2013-02-16 03:35:00,
2013-02-15 22:45:00,35.3,24.0,29.90,NW,321,0.0,5.0,63,0.00,,,0.00,Wunderground v.1.15,2013-02-16 03:45:00,
2013-02-15 22:50:00,35.3,24.3,29.90,NW,321,0.0,5.0,64,0.00,,,0.00,Wunderground v.1.15,2013-02-16 03:50:00,
2013-02-15 22:55:00,35.0,24.0,29.90,NW,321,0.0,5.0,64,0.00,,,0.00,Wunderground v.1.15,2013-02-16 03:55:00,
2013-02-15 23:05:00,35.8,23.7,29.90,NW,321,0.0,5.0,61,0.00,,,0.00,Wunderground v.1.15,2013-02-16 04:05:00,
2013-02-15 23:10:00,36.1,24.7,29.90,NW,321,0.0,5.0,63,0.00,,,0.00,Wunderground v.1.15,2013-02-16 04:10:00,
2013-02-15 23:20:00,36.2,25.6,29.90,NNW,337,1.0,5.0,65,0.00,,,0.00,Wunderground v.1.15,2013-02-16 04:20:00,
2013-02-15 23:25:00,35.0,25.5,29.90,NNW,337,1.0,5.0,68,0.00,,,0.00,Wunderground v.1.15,2013-02-16 04:25:00,
2013-02-15 23:30:00,34.2,25.4,29.90,NNW,337,1.0,1.0,70,0.00,,,0.00,Wunderground v.1.15,2013-02-16 04:30:00,
2013-02-15 23:35:00,33.9,24.8,29.90,NNW,337,1.0,5.0,69,0.00,,,0.00,Wunderground v.1.15,2013-02-16 04:35:00,
2013-02-15 23:40:00,34.0,24.5,29.90,NNW,337,0.0,5.0,68,0.00,,,0.00,Wunderground v.1.15,2013-02-16 04:40:00,
2013-02-15 23:45:00,34.5,23.9,29.90,NNW,337,1.0,5.0,65,0.00,,,0.00,Wunderground v.1.15,2013-02-16 04:45:00,
2013-02-15 23:50:00,34.8,27.0,29.90,NNW,337,0.0,5.0,73,0.00,,,0.00,Wunderground v.1.15,2013-02-16 04:50:00,